Weather History for KY19 - April, 2013

Change the Weather History Date:

Sunday, April 28, 2013

  Actual Average (KBIS) Record (KBIS)
Temperature  
Mean Temperature 52 °F 49 °F  
Max Temperature 64 °F 63 °F 92 °F (1952)
Min Temperature 39 °F 36 °F 18 °F (2008)
Degree Days  
Heating Degree Days 14 16  
Month to date heating degree days 606  
Since 1 July heating degree days 8125  
Cooling Degree Days 0 0  
Month to date cooling degree days 0  
Year to date cooling degree days 0  
Growing Degree Days 2 (Base 50)    
Moisture  
Dew Point 30 °F    
Average Humidity 37    
Maximum Humidity 52    
Minimum Humidity 19    
Precipitation  
Precipitation 0.00 in 0.06 in 1.51 in (1970)
Month to date precipitation 1.15  
Year to date precipitation 2.96  
Snow  
Snow 0.00 in 0.10 in 6.70 in (1914)
Month to date snowfall 4.1  
Since 1 July snowfall 50.7  
Snow Depth -    
Sea Level Pressure  
Sea Level Pressure 29.80 in    
Wind  
Wind Speed 13 mph (NNW)    
Max Wind Speed 23 mph    
Max Gust Speed 29 mph    
Visibility 10 miles    
Events      
T = Trace of Precipitation, MM = Missing Value Source: NWS Daily Summary

Daily Weather History Graph

Daily Weather History Graph

Search for Another Location

Airport or City:

Trip Planner

Search our weather history database for the weather conditions in past years. The results will help you decide how hot, cold, wet, or windy it might be!

Date:

Astronomy

Apr. 28, 2013 Rise Set
Actual Time 6:32 AM CDT 8:49 PM CDT
Civil Twilight 5:59 AM CDT 9:23 PM CDT
Nautical Twilight 5:18 AM CDT 10:05 PM CDT
Astronomical Twilight 4:31 AM CDT 10:52 PM CDT
Moon No Moon Rise 8:44 AM CDT (4/28)
Length of Visible Light 15h 23m
Length of Day
14h 16m
Waning Gibbous, 88% of the Moon is Illuminated
Apr 28
Waning Gibbous
May 2
Last Quarter
May 9
New
May 17
First Quarter
May 24
Full

Hourly Weather History & Observations

Time (CDT) Temp. Windchill Dew Point Humidity Pressure Visibility Wind Dir Wind Speed Gust Speed Precip Events Conditions
12:15 AM 57.2 °F - 35.6 °F 44% 29.70 in 10.0 mi SW 8.1 mph - N/A   Mostly Cloudy
12:35 AM 59.0 °F - 33.8 °F 39% 29.69 in 10.0 mi SW 6.9 mph - N/A   Mostly Cloudy
12:55 AM 57.2 °F - 35.6 °F 44% 29.69 in 10.0 mi SW 8.1 mph - N/A   Scattered Clouds
1:15 AM 57.2 °F - 35.6 °F 44% 29.69 in 10.0 mi SW 8.1 mph - N/A   Scattered Clouds
1:35 AM 59.0 °F - 33.8 °F 39% 29.68 in 10.0 mi SSW 11.5 mph - N/A   Mostly Cloudy
1:55 AM 59.0 °F - 35.6 °F 42% 29.67 in 10.0 mi SSW 9.2 mph - N/A   Overcast
2:15 AM 59.0 °F - 35.6 °F 42% 29.67 in 10.0 mi SSW 10.4 mph - N/A   Overcast
2:35 AM 57.2 °F - 35.6 °F 44% 29.67 in 10.0 mi SW 5.8 mph - N/A   Mostly Cloudy
2:55 AM 55.4 °F - 35.6 °F 47% 29.67 in 10.0 mi WSW 6.9 mph - N/A   Mostly Cloudy
3:15 AM 57.2 °F - 35.6 °F 44% 29.66 in 10.0 mi WSW 9.2 mph - N/A   Overcast
3:35 AM 57.2 °F - 35.6 °F 44% 29.66 in 10.0 mi WSW 10.4 mph - N/A   Overcast
3:55 AM 59.0 °F - 35.6 °F 42% 29.66 in 10.0 mi West 16.1 mph - N/A   Mostly Cloudy
4:15 AM 59.0 °F - 35.6 °F 42% 29.66 in 10.0 mi West 17.3 mph - N/A   Mostly Cloudy
4:35 AM 59.0 °F - 33.8 °F 39% 29.66 in 10.0 mi WNW 16.1 mph - N/A   Mostly Cloudy
4:55 AM 59.0 °F - 35.6 °F 42% 29.68 in 10.0 mi West 15.0 mph - N/A   Mostly Cloudy
5:15 AM 59.0 °F - 33.8 °F 39% 29.68 in 10.0 mi WNW 17.3 mph - N/A   Mostly Cloudy
5:35 AM 59.0 °F - 33.8 °F 39% 29.69 in 10.0 mi WNW 16.1 mph - N/A   Scattered Clouds
5:55 AM 57.2 °F - 33.8 °F 41% 29.70 in 10.0 mi WNW 15.0 mph - N/A   Mostly Cloudy
6:15 AM 57.2 °F - 33.8 °F 41% 29.70 in 10.0 mi WNW 12.7 mph - N/A   Partly Cloudy
6:35 AM 57.2 °F - 33.8 °F 41% 29.71 in 10.0 mi NW 12.7 mph - N/A   Clear
6:55 AM 55.4 °F - 35.6 °F 47% 29.71 in 10.0 mi WNW 10.4 mph - N/A   Partly Cloudy
7:15 AM 55.4 °F - 35.6 °F 47% 29.71 in 10.0 mi WNW 12.7 mph - N/A   Clear
7:35 AM 55.4 °F - 35.6 °F 47% 29.72 in 10.0 mi WNW 12.7 mph - N/A   Clear
7:55 AM 55.4 °F - 35.6 °F 47% 29.73 in 10.0 mi WNW 12.7 mph - N/A   Clear
8:15 AM 57.2 °F - 35.6 °F 44% 29.73 in 10.0 mi WNW 13.8 mph - N/A   Clear
8:35 AM 57.2 °F - 35.6 °F 44% 29.74 in 10.0 mi WNW 15.0 mph 20.7 mph N/A   Clear
8:55 AM 57.2 °F - 35.6 °F 44% 29.75 in 10.0 mi NW 15.0 mph - N/A   Clear
9:15 AM 57.2 °F - 35.6 °F 44% 29.76 in 10.0 mi NW 15.0 mph 23.0 mph N/A   Clear
9:35 AM 57.2 °F - 35.6 °F 44% 29.77 in 10.0 mi NW 16.1 mph 20.7 mph N/A   Clear
9:55 AM 57.2 °F - 35.6 °F 44% 29.77 in 10.0 mi NW 17.3 mph 25.3 mph N/A   Clear
10:15 AM 57.2 °F - 35.6 °F 44% 29.77 in 10.0 mi NW 18.4 mph 24.2 mph N/A   Clear
10:35 AM 57.2 °F - 35.6 °F 44% 29.79 in 10.0 mi NW 18.4 mph - N/A   Clear
10:55 AM 59.0 °F - 35.6 °F 42% 29.79 in 10.0 mi NW 20.7 mph 26.5 mph N/A   Clear
11:15 AM 59.0 °F - 35.6 °F 42% 29.79 in 10.0 mi NNW 18.4 mph 25.3 mph N/A   Clear
11:35 AM 59.0 °F - 35.6 °F 42% 29.80 in 10.0 mi NNW 18.4 mph 24.2 mph N/A   Clear
11:55 AM 59.0 °F - 35.6 °F 42% 29.82 in 10.0 mi North 19.6 mph 25.3 mph N/A   Clear
12:35 PM 60.8 °F - 35.6 °F 39% 29.83 in 10.0 mi North 16.1 mph 26.5 mph N/A   Clear
12:55 PM 62.6 °F - 32.0 °F 32% 29.84 in 10.0 mi North 23.0 mph - N/A   Clear
1:15 PM 62.6 °F - 32.0 °F 32% 29.85 in 10.0 mi North 20.7 mph 28.8 mph N/A   Clear
1:35 PM 60.8 °F - 28.4 °F 29% 29.85 in 10.0 mi North 21.9 mph 26.5 mph N/A   Clear
1:55 PM 62.6 °F - 28.4 °F 27% 29.86 in 10.0 mi North 19.6 mph 24.2 mph N/A   Clear
2:15 PM 62.6 °F - 24.8 °F 24% 29.86 in 10.0 mi North 23.0 mph - N/A   Clear
2:35 PM 62.6 °F - 26.6 °F 26% 29.86 in 10.0 mi North 21.9 mph 25.3 mph N/A   Clear
2:55 PM 62.6 °F - 23.0 °F 22% 29.87 in 10.0 mi NNE 20.7 mph - N/A   Clear
3:15 PM 64.4 °F - 23.0 °F 21% 29.87 in 10.0 mi North 20.7 mph 26.5 mph N/A   Clear
3:35 PM 64.4 °F - 23.0 °F 21% 29.88 in 10.0 mi North 21.9 mph 27.6 mph N/A   Clear
3:55 PM 64.4 °F - 21.2 °F 19% 29.88 in 10.0 mi North 19.6 mph 24.2 mph N/A   Clear
4:15 PM 62.6 °F - 21.2 °F 20% 29.88 in 10.0 mi North 21.9 mph 28.8 mph N/A   Clear
4:35 PM 62.6 °F - 23.0 °F 22% 29.88 in 10.0 mi North 19.6 mph 26.5 mph N/A   Clear
4:55 PM 62.6 °F - 23.0 °F 22% 29.88 in 10.0 mi North 15.0 mph 26.5 mph N/A   Clear
5:15 PM 62.6 °F - 24.8 °F 24% 29.88 in 10.0 mi NNE 17.3 mph 25.3 mph N/A   Clear
5:55 PM 62.6 °F - 23.0 °F 22% 29.88 in 10.0 mi North 18.4 mph 23.0 mph N/A   Clear
6:15 PM 59.0 °F - 23.0 °F 25% 29.89 in 10.0 mi North 18.4 mph 24.2 mph N/A   Scattered Clouds
6:35 PM 60.8 °F - 23.0 °F 23% 29.89 in 10.0 mi North 16.1 mph 19.6 mph N/A   Mostly Cloudy
6:55 PM 60.8 °F - 23.0 °F 23% 29.89 in 10.0 mi NNE 15.0 mph 21.9 mph N/A   Scattered Clouds
7:15 PM 59.0 °F - 23.0 °F 25% 29.90 in 10.0 mi North 15.0 mph - N/A   Clear
7:35 PM 59.0 °F - 23.0 °F 25% 29.90 in 10.0 mi North 13.8 mph - N/A   Clear
7:55 PM 57.2 °F - 23.0 °F 27% 29.90 in 10.0 mi North 11.5 mph - N/A   Clear
8:15 PM 55.4 °F - 23.0 °F 29% 29.90 in 10.0 mi North 8.1 mph - N/A   Clear
8:35 PM 53.6 °F - 26.6 °F 35% 29.91 in 10.0 mi NNE 11.5 mph - N/A   Clear
8:55 PM 50.0 °F - 26.6 °F 40% 29.91 in 10.0 mi NE 10.4 mph - N/A   Clear
9:15 PM 48.2 °F - 23.0 °F 37% 29.92 in 10.0 mi NE 9.2 mph - N/A   Clear
9:35 PM 46.4 °F 41.1 °F 21.2 °F 37% 29.92 in 10.0 mi NNE 11.5 mph - N/A   Clear
9:55 PM 44.6 °F 39.2 °F 21.2 °F 39% 29.93 in 10.0 mi NE 10.4 mph - N/A   Clear
10:15 PM 42.8 °F 37.0 °F 23.0 °F 46% 29.93 in 10.0 mi NE 10.4 mph - N/A   Clear
10:35 PM 41.0 °F 35.2 °F 23.0 °F 49% 29.92 in 10.0 mi NE 9.2 mph - N/A   Clear
10:55 PM 41.0 °F 35.8 °F 23.0 °F 49% 29.92 in 10.0 mi NE 8.1 mph - N/A   Clear
11:15 PM 39.2 °F 33.6 °F 23.0 °F 52% 29.91 in 10.0 mi NE 8.1 mph - N/A   Clear
11:35 PM 39.2 °F 33.6 °F 21.2 °F 49% 29.91 in 10.0 mi NE 8.1 mph - N/A   Clear
11:55 PM 39.2 °F 35.0 °F 19.4 °F 45% 29.91 in 10.0 mi NE 5.8 mph - N/A   Partly Cloudy